contact:dominique.lefevre@mio.osupytheas.fr, maurice.libes@osupytheas.fr, didier.mallarino@osupytheas.fr
Project:EMSO http://www.emso-fr.org/EMSO-France
Depth: 2436.0 m
Title:EMSO Ligure Ouest : Data MII capteur MICROCAT
DateTime_Computer,Latitude,Longitude,Temperature,Conductivity,Pressure,DateTime_Instrument
DateTime_Computer,Latitude,Longitude,degC,S m-1,dbar,DateTime_Instrument
2022-05-10T00:02:53Z,42.805,6.029,13.2998,4.60031,2470.366,2022-5-10T02:04:33Z
2022-05-10T00:05:56Z,42.805,6.029,13.2999,4.60031,2470.366,2022-5-10T02:07:36Z
2022-05-10T00:08:59Z,42.805,6.029,13.2996,4.60031,2470.39,2022-5-10T02:10:40Z
2022-05-10T00:12:02Z,42.805,6.029,13.2997,4.60031,2470.366,2022-5-10T02:13:43Z
2022-05-10T00:15:05Z,42.805,6.029,13.2996,4.60032,2470.366,2022-5-10T02:16:46Z
2022-05-10T00:18:08Z,42.805,6.029,13.2999,4.60032,2470.39,2022-5-10T02:19:49Z
2022-05-10T00:21:12Z,42.805,6.029,13.2997,4.60031,2470.38,2022-5-10T02:22:52Z
2022-05-10T00:24:15Z,42.805,6.029,13.2996,4.60031,2470.39,2022-5-10T02:25:55Z
2022-05-10T00:27:18Z,42.805,6.029,13.3005,4.60031,2470.366,2022-5-10T02:28:58Z
2022-05-10T00:30:21Z,42.805,6.029,13.2999,4.60033,2470.413,2022-5-10T02:32:01Z
2022-05-10T00:33:24Z,42.805,6.029,13.3000,4.60031,2470.343,2022-5-10T02:35:05Z
2022-05-10T00:36:27Z,42.805,6.029,13.2995,4.60031,2470.357,2022-5-10T02:38:08Z
2022-05-10T00:39:30Z,42.805,6.029,13.3000,4.60031,2470.366,2022-5-10T02:41:11Z
2022-05-10T00:42:33Z,42.805,6.029,13.3000,4.60031,2470.38,2022-5-10T02:44:14Z
2022-05-10T00:45:37Z,42.805,6.029,13.2996,4.60031,2470.404,2022-5-10T02:47:17Z
2022-05-10T00:48:40Z,42.805,6.029,13.2999,4.60031,2470.366,2022-5-10T02:50:20Z
2022-05-10T00:51:43Z,42.805,6.029,13.3000,4.60031,2470.39,2022-5-10T02:53:23Z
2022-05-10T00:54:46Z,42.805,6.029,13.2998,4.60029,2470.366,2022-5-10T02:56:26Z
2022-05-10T00:57:49Z,42.805,6.029,13.2996,4.60032,2470.38,2022-5-10T02:59:30Z
2022-05-10T01:00:52Z,42.805,6.029,13.2997,4.60032,2470.353,2022-5-10T03:02:33Z
2022-05-10T01:03:55Z,42.805,6.029,13.2998,4.60031,2470.413,2022-5-10T03:05:36Z
2022-05-10T01:06:58Z,42.805,6.029,13.2998,4.60032,2470.404,2022-5-10T03:08:39Z
2022-05-10T01:10:02Z,42.805,6.029,13.2996,4.60031,2470.366,2022-5-10T03:11:42Z
2022-05-10T01:13:05Z,42.805,6.029,13.3000,4.60032,2470.39,2022-5-10T03:14:45Z
2022-05-10T01:16:08Z,42.805,6.029,13.2996,4.60031,2470.404,2022-5-10T03:17:48Z
2022-05-10T01:19:11Z,42.805,6.029,13.2997,4.60031,2470.366,2022-5-10T03:20:51Z
2022-05-10T01:22:14Z,42.805,6.029,13.2997,4.60033,2470.366,2022-5-10T03:23:55Z
2022-05-10T01:25:17Z,42.805,6.029,13.2998,4.60032,2470.404,2022-5-10T03:26:58Z
2022-05-10T01:28:20Z,42.805,6.029,13.2999,4.60031,2470.38,2022-5-10T03:30:01Z
2022-05-10T01:31:23Z,42.805,6.029,13.3003,4.60031,2470.38,2022-5-10T03:33:04Z
2022-05-10T01:34:27Z,42.805,6.029,13.3000,4.60033,2470.413,2022-5-10T03:36:07Z
2022-05-10T01:37:30Z,42.805,6.029,13.2998,4.60031,2470.376,2022-5-10T03:39:10Z
2022-05-10T01:40:33Z,42.805,6.029,13.2996,4.60032,2470.39,2022-5-10T03:42:13Z
2022-05-10T01:43:36Z,42.805,6.029,13.2997,4.60031,2470.404,2022-5-10T03:45:16Z
2022-05-10T01:46:39Z,42.805,6.029,13.2998,4.60033,2470.39,2022-5-10T03:48:19Z
2022-05-10T01:49:42Z,42.805,6.029,13.2999,4.60032,2470.376,2022-5-10T03:51:23Z
2022-05-10T01:52:45Z,42.805,6.029,13.2998,4.60032,2470.404,2022-5-10T03:54:26Z
2022-05-10T01:55:48Z,42.805,6.029,13.3000,4.60032,2470.39,2022-5-10T03:57:29Z
2022-05-10T01:58:51Z,42.805,6.029,13.2999,4.60033,2470.404,2022-5-10T04:00:32Z
2022-05-10T02:01:55Z,42.805,6.029,13.2997,4.60033,2470.413,2022-5-10T04:03:35Z
2022-05-10T02:04:58Z,42.805,6.029,13.2996,4.60032,2470.413,2022-5-10T04:06:38Z
2022-05-10T02:08:01Z,42.805,6.029,13.2996,4.60031,2470.404,2022-5-10T04:09:41Z
2022-05-10T02:11:04Z,42.805,6.029,13.3000,4.60032,2470.413,2022-5-10T04:12:44Z
2022-05-10T02:14:07Z,42.805,6.029,13.2995,4.60033,2470.404,2022-5-10T04:15:48Z
2022-05-10T02:17:10Z,42.805,6.029,13.2998,4.60032,2470.39,2022-5-10T04:18:51Z
2022-05-10T02:20:13Z,42.805,6.029,13.3000,4.60032,2470.39,2022-5-10T04:21:54Z
2022-05-10T02:23:16Z,42.805,6.029,13.3001,4.60033,2470.39,2022-5-10T04:24:57Z
2022-05-10T02:26:20Z,42.805,6.029,13.2999,4.60032,2470.39,2022-5-10T04:28:00Z
2022-05-10T02:29:23Z,42.805,6.029,13.2996,4.60032,2470.366,2022-5-10T04:31:03Z
2022-05-10T02:32:26Z,42.805,6.029,13.2997,4.60033,2470.39,2022-5-10T04:34:06Z
2022-05-10T02:35:29Z,42.805,6.029,13.2996,4.60032,2470.404,2022-5-10T04:37:09Z
2022-05-10T02:38:32Z,42.805,6.029,13.2994,4.60033,2470.404,2022-5-10T04:40:13Z
2022-05-10T02:41:35Z,42.805,6.029,13.2996,4.60033,2470.366,2022-5-10T04:43:16Z
2022-05-10T02:44:38Z,42.805,6.029,13.3001,4.60033,2470.366,2022-5-10T04:46:19Z
2022-05-10T02:47:41Z,42.805,6.029,13.3001,4.60033,2470.39,2022-5-10T04:49:22Z
2022-05-10T02:50:45Z,42.805,6.029,13.3000,4.60032,2470.39,2022-5-10T04:52:25Z
2022-05-10T02:53:48Z,42.805,6.029,13.3003,4.60032,2470.376,2022-5-10T04:55:28Z
2022-05-10T02:56:51Z,42.805,6.029,13.3000,4.60033,2470.404,2022-5-10T04:58:31Z
2022-05-10T02:59:54Z,42.805,6.029,13.3000,4.60033,2470.413,2022-5-10T05:01:34Z
2022-05-10T03:02:57Z,42.805,6.029,13.3002,4.60032,2470.38,2022-5-10T05:04:38Z
2022-05-10T03:06:00Z,42.805,6.029,13.3000,4.60033,2470.38,2022-5-10T05:07:41Z
2022-05-10T03:09:03Z,42.805,6.029,13.2998,4.60032,2470.404,2022-5-10T05:10:44Z
2022-05-10T03:12:06Z,42.805,6.029,13.2998,4.60033,2470.404,2022-5-10T05:13:47Z
2022-05-10T03:15:10Z,42.805,6.029,13.2999,4.60033,2470.39,2022-5-10T05:16:50Z
2022-05-10T03:18:13Z,42.805,6.029,13.3000,4.60033,2470.366,2022-5-10T05:19:53Z
2022-05-10T03:21:16Z,42.805,6.029,13.3001,4.60033,2470.39,2022-5-10T05:22:56Z
2022-05-10T03:24:19Z,42.805,6.029,13.3000,4.60032,2470.413,2022-5-10T05:25:59Z
2022-05-10T03:27:22Z,42.805,6.029,13.3000,4.60033,2470.38,2022-5-10T05:29:02Z
2022-05-10T03:30:25Z,42.805,6.029,13.2999,4.60033,2470.404,2022-5-10T05:32:06Z
2022-05-10T03:33:28Z,42.805,6.029,13.3000,4.60033,2470.39,2022-5-10T05:35:09Z
2022-05-10T03:36:31Z,42.805,6.029,13.3000,4.60033,2470.427,2022-5-10T05:38:12Z
2022-05-10T03:39:34Z,42.805,6.029,13.3000,4.60033,2470.427,2022-5-10T05:41:15Z
2022-05-10T03:42:38Z,42.805,6.029,13.2998,4.60035,2470.413,2022-5-10T05:44:18Z
2022-05-10T03:45:41Z,42.805,6.029,13.3004,4.60033,2470.366,2022-5-10T05:47:21Z
2022-05-10T03:48:44Z,42.805,6.029,13.3000,4.60033,2470.39,2022-5-10T05:50:24Z
2022-05-10T03:51:47Z,42.805,6.029,13.3003,4.60034,2470.413,2022-5-10T05:53:27Z
2022-05-10T03:54:50Z,42.805,6.029,13.3004,4.60034,2470.38,2022-5-10T05:56:31Z
2022-05-10T03:57:53Z,42.805,6.029,13.3001,4.60036,2470.357,2022-5-10T05:59:34Z
2022-05-10T04:00:56Z,42.805,6.029,13.3003,4.60034,2470.38,2022-5-10T06:02:37Z
2022-05-10T04:03:59Z,42.805,6.029,13.3004,4.60033,2470.413,2022-5-10T06:05:40Z
2022-05-10T04:07:03Z,42.805,6.029,13.2999,4.60034,2470.404,2022-5-10T06:08:43Z
2022-05-10T04:10:06Z,42.805,6.029,13.3002,4.60034,2470.404,2022-5-10T06:11:46Z
2022-05-10T04:13:09Z,42.805,6.029,13.3005,4.60034,2470.427,2022-5-10T06:14:49Z
2022-05-10T04:16:12Z,42.805,6.029,13.3001,4.60035,2470.404,2022-5-10T06:17:52Z
2022-05-10T04:19:15Z,42.805,6.029,13.3001,4.60034,2470.39,2022-5-10T06:20:56Z
2022-05-10T04:22:18Z,42.805,6.029,13.2998,4.60036,2470.39,2022-5-10T06:23:59Z
2022-05-10T04:25:21Z,42.805,6.029,13.3000,4.60036,2470.39,2022-5-10T06:27:02Z
2022-05-10T04:28:24Z,42.805,6.029,13.3004,4.60034,2470.404,2022-5-10T06:30:05Z
2022-05-10T04:31:28Z,42.805,6.029,13.3000,4.60036,2470.38,2022-5-10T06:33:08Z
2022-05-10T04:34:31Z,42.805,6.029,13.3002,4.60036,2470.38,2022-5-10T06:36:11Z
2022-05-10T04:37:34Z,42.805,6.029,13.2998,4.60035,2470.39,2022-5-10T06:39:14Z
2022-05-10T04:40:37Z,42.805,6.029,13.2999,4.60036,2470.366,2022-5-10T06:42:17Z
2022-05-10T04:43:40Z,42.805,6.029,13.2998,4.60036,2470.404,2022-5-10T06:45:20Z
2022-05-10T04:46:43Z,42.805,6.029,13.3002,4.60036,2470.427,2022-5-10T06:48:24Z
2022-05-10T04:49:46Z,42.805,6.029,13.3004,4.60036,2470.413,2022-5-10T06:51:27Z
2022-05-10T04:52:49Z,42.805,6.029,13.3004,4.60036,2470.413,2022-5-10T06:54:30Z
2022-05-10T04:55:53Z,42.805,6.029,13.3000,4.60036,2470.404,2022-5-10T06:57:33Z
2022-05-10T04:58:56Z,42.805,6.029,13.3004,4.60036,2470.404,2022-5-10T07:00:36Z
2022-05-10T05:01:59Z,42.805,6.029,13.3002,4.60036,2470.39,2022-5-10T07:03:39Z
2022-05-10T05:05:02Z,42.805,6.029,13.3004,4.60036,2470.474,2022-5-10T07:06:42Z
2022-05-10T05:08:05Z,42.805,6.029,13.3002,4.60035,2470.413,2022-5-10T07:09:45Z
2022-05-10T05:11:08Z,42.805,6.029,13.3005,4.60036,2470.39,2022-5-10T07:12:49Z
2022-05-10T05:14:11Z,42.805,6.029,13.3004,4.60037,2470.39,2022-5-10T07:15:52Z
2022-05-10T05:17:14Z,42.805,6.029,13.3006,4.60036,2470.38,2022-5-10T07:18:55Z
2022-05-10T05:20:17Z,42.805,6.029,13.3001,4.60037,2470.366,2022-5-10T07:21:58Z
2022-05-10T05:23:21Z,42.805,6.029,13.3006,4.60036,2470.39,2022-5-10T07:25:01Z
2022-05-10T05:26:24Z,42.805,6.029,13.3002,4.60036,2470.366,2022-5-10T07:28:04Z
2022-05-10T05:29:27Z,42.805,6.029,13.3006,4.60038,2470.404,2022-5-10T07:31:07Z
2022-05-10T05:32:30Z,42.805,6.029,13.3004,4.60036,2470.39,2022-5-10T07:34:10Z
2022-05-10T05:35:33Z,42.805,6.029,13.3004,4.60036,2470.39,2022-5-10T07:37:14Z
2022-05-10T05:38:36Z,42.805,6.029,13.3004,4.60036,2470.366,2022-5-10T07:40:17Z
2022-05-10T05:41:39Z,42.805,6.029,13.3003,4.60036,2470.38,2022-5-10T07:43:20Z
2022-05-10T05:44:42Z,42.805,6.029,13.3001,4.60037,2470.38,2022-5-10T07:46:23Z
2022-05-10T05:47:46Z,42.805,6.029,13.3003,4.60037,2470.38,2022-5-10T07:49:26Z
2022-05-10T05:50:49Z,42.805,6.029,13.3001,4.60036,2470.343,2022-5-10T07:52:29Z
2022-05-10T05:53:52Z,42.805,6.029,13.3004,4.60036,2470.366,2022-5-10T07:55:32Z
2022-05-10T05:56:55Z,42.805,6.029,13.2998,4.60036,2470.39,2022-5-10T07:58:35Z
2022-05-10T05:59:58Z,42.805,6.029,13.3005,4.60037,2470.32,2022-5-10T08:01:39Z
2022-05-10T06:03:01Z,42.805,6.029,13.3005,4.60037,2470.32,2022-5-10T08:04:42Z
2022-05-10T06:06:04Z,42.805,6.029,13.3006,4.60037,2470.306,2022-5-10T08:07:45Z
2022-05-10T06:09:07Z,42.805,6.029,13.3004,4.60037,2470.343,2022-5-10T08:10:48Z
2022-05-10T06:12:11Z,42.805,6.029,13.3004,4.60036,2470.32,2022-5-10T08:13:51Z
2022-05-10T06:15:14Z,42.805,6.029,13.3004,4.60036,2470.343,2022-5-10T08:16:54Z
2022-05-10T06:18:17Z,42.805,6.029,13.3004,4.60036,2470.297,2022-5-10T08:19:57Z
2022-05-10T06:21:20Z,42.805,6.029,13.3004,4.60038,2470.343,2022-5-10T08:23:00Z
2022-05-10T06:24:23Z,42.805,6.029,13.3002,4.60037,2470.32,2022-5-10T08:26:03Z
2022-05-10T06:27:26Z,42.805,6.029,13.3003,4.60038,2470.32,2022-5-10T08:29:07Z
2022-05-10T06:30:29Z,42.805,6.029,13.3006,4.60037,2470.334,2022-5-10T08:32:10Z
2022-05-10T06:33:32Z,42.805,6.029,13.3002,4.60036,2470.343,2022-5-10T08:35:13Z
2022-05-10T06:36:36Z,42.805,6.029,13.3004,4.60036,2470.297,2022-5-10T08:38:16Z
2022-05-10T06:39:39Z,42.805,6.029,13.3003,4.60036,2470.32,2022-5-10T08:41:19Z
2022-05-10T06:42:42Z,42.805,6.029,13.3004,4.60036,2470.32,2022-5-10T08:44:22Z
2022-05-10T06:45:45Z,42.805,6.029,13.3004,4.60036,2470.297,2022-5-10T08:47:25Z
2022-05-10T06:48:48Z,42.805,6.029,13.2998,4.60036,2470.287,2022-5-10T08:50:28Z
2022-05-10T06:51:51Z,42.805,6.029,13.3003,4.60037,2470.32,2022-5-10T08:53:32Z
2022-05-10T06:54:54Z,42.805,6.029,13.3004,4.60037,2470.297,2022-5-10T08:56:35Z
2022-05-10T06:57:57Z,42.805,6.029,13.3002,4.60036,2470.297,2022-5-10T08:59:38Z
2022-05-10T07:01:00Z,42.805,6.029,13.3001,4.60039,2470.297,2022-5-10T09:02:41Z
2022-05-10T07:04:04Z,42.805,6.029,13.2999,4.60037,2470.297,2022-5-10T09:05:44Z
2022-05-10T07:07:07Z,42.805,6.029,13.3004,4.60036,2470.283,2022-5-10T09:08:47Z
2022-05-10T07:10:10Z,42.805,6.029,13.3006,4.60037,2470.273,2022-5-10T09:11:50Z
2022-05-10T07:13:13Z,42.805,6.029,13.3003,4.60036,2470.297,2022-5-10T09:14:53Z
2022-05-10T07:16:16Z,42.805,6.029,13.3002,4.60037,2470.31,2022-5-10T09:17:57Z
2022-05-10T07:19:19Z,42.805,6.029,13.3001,4.60038,2470.297,2022-5-10T09:21:00Z
2022-05-10T07:22:22Z,42.805,6.029,13.3002,4.60036,2470.273,2022-5-10T09:24:03Z
2022-05-10T07:25:25Z,42.805,6.029,13.3003,4.60036,2470.31,2022-5-10T09:27:06Z
2022-05-10T07:28:29Z,42.805,6.029,13.3004,4.60036,2470.297,2022-5-10T09:30:09Z
2022-05-10T07:31:32Z,42.805,6.029,13.3000,4.60038,2470.31,2022-5-10T09:33:12Z
2022-05-10T07:34:35Z,42.805,6.029,13.3004,4.60037,2470.297,2022-5-10T09:36:15Z
2022-05-10T07:37:38Z,42.805,6.029,13.3001,4.60037,2470.273,2022-5-10T09:39:18Z
2022-05-10T07:40:41Z,42.805,6.029,13.3003,4.60037,2470.297,2022-5-10T09:42:21Z
2022-05-10T07:43:44Z,42.805,6.029,13.2998,4.60036,2470.273,2022-5-10T09:45:25Z
2022-05-10T07:46:47Z,42.805,6.029,13.3003,4.60037,2470.287,2022-5-10T09:48:28Z
2022-05-10T07:49:50Z,42.805,6.029,13.3002,4.60038,2470.297,2022-5-10T09:51:31Z
2022-05-10T07:52:54Z,42.805,6.029,13.3003,4.60036,2470.297,2022-5-10T09:54:34Z
2022-05-10T07:55:57Z,42.805,6.029,13.3003,4.60035,2470.273,2022-5-10T09:57:37Z
2022-05-10T07:59:00Z,42.805,6.029,13.3003,4.60037,2470.273,2022-5-10T10:00:40Z
2022-05-10T08:02:03Z,42.805,6.029,13.3000,4.60036,2470.25,2022-5-10T10:03:43Z
2022-05-10T08:05:06Z,42.805,6.029,13.3000,4.60035,2470.287,2022-5-10T10:06:46Z
2022-05-10T08:08:09Z,42.805,6.029,13.3004,4.60034,2470.264,2022-5-10T10:09:50Z
2022-05-10T08:11:12Z,42.805,6.029,13.3000,4.60035,2470.273,2022-5-10T10:12:53Z
2022-05-10T08:14:15Z,42.805,6.029,13.3004,4.60036,2470.273,2022-5-10T10:15:56Z
2022-05-10T08:17:19Z,42.805,6.029,13.3000,4.60035,2470.297,2022-5-10T10:18:59Z
2022-05-10T08:20:22Z,42.805,6.029,13.3000,4.60035,2470.25,2022-5-10T10:22:02Z
2022-05-10T08:23:25Z,42.805,6.029,13.3000,4.60033,2470.264,2022-5-10T10:25:05Z
2022-05-10T08:26:28Z,42.805,6.029,13.3004,4.60034,2470.25,2022-5-10T10:28:08Z
2022-05-10T08:29:31Z,42.805,6.029,13.2998,4.60033,2470.25,2022-5-10T10:31:11Z
2022-05-10T08:32:34Z,42.805,6.029,13.2998,4.60033,2470.25,2022-5-10T10:34:15Z
2022-05-10T08:35:37Z,42.805,6.029,13.3000,4.60033,2470.273,2022-5-10T10:37:18Z
2022-05-10T08:38:40Z,42.805,6.029,13.3001,4.60033,2470.297,2022-5-10T10:40:21Z
2022-05-10T08:41:44Z,42.805,6.029,13.3000,4.60033,2470.25,2022-5-10T10:43:24Z
2022-05-10T08:44:47Z,42.805,6.029,13.3001,4.60033,2470.273,2022-5-10T10:46:27Z
2022-05-10T08:47:50Z,42.805,6.029,13.2999,4.60033,2470.273,2022-5-10T10:49:30Z
2022-05-10T08:50:53Z,42.805,6.029,13.2998,4.60035,2470.273,2022-5-10T10:52:33Z
2022-05-10T08:53:56Z,42.805,6.029,13.3000,4.60033,2470.25,2022-5-10T10:55:36Z
2022-05-10T08:56:59Z,42.805,6.029,13.3000,4.60033,2470.25,2022-5-10T10:58:40Z
2022-05-10T09:00:02Z,42.805,6.029,13.2998,4.60033,2470.264,2022-5-10T11:01:43Z
2022-05-10T09:03:05Z,42.805,6.029,13.2998,4.60034,2470.25,2022-5-10T11:04:46Z
2022-05-10T09:06:09Z,42.805,6.029,13.3002,4.60033,2470.25,2022-5-10T11:07:49Z
2022-05-10T09:09:12Z,42.805,6.029,13.2999,4.60033,2470.264,2022-5-10T11:10:52Z
2022-05-10T09:12:15Z,42.805,6.029,13.2999,4.60034,2470.273,2022-5-10T11:13:55Z
2022-05-10T09:15:18Z,42.805,6.029,13.3006,4.60034,2470.287,2022-5-10T11:16:58Z
2022-05-10T09:18:21Z,42.805,6.029,13.2999,4.60033,2470.25,2022-5-10T11:20:02Z
2022-05-10T09:21:24Z,42.805,6.029,13.3000,4.60033,2470.24,2022-5-10T11:23:05Z
2022-05-10T09:24:27Z,42.805,6.029,13.2999,4.60033,2470.25,2022-5-10T11:26:08Z
2022-05-10T09:27:30Z,42.805,6.029,13.3000,4.60033,2470.273,2022-5-10T11:29:11Z
2022-05-10T09:30:34Z,42.805,6.029,13.2998,4.60034,2470.227,2022-5-10T11:32:14Z
2022-05-10T09:33:37Z,42.805,6.029,13.3002,4.60033,2470.25,2022-5-10T11:35:17Z
2022-05-10T09:36:40Z,42.805,6.029,13.3000,4.60033,2470.264,2022-5-10T11:38:20Z
2022-05-10T09:39:43Z,42.805,6.029,13.3004,4.60034,2470.273,2022-5-10T11:41:23Z
2022-05-10T09:42:46Z,42.805,6.029,13.2999,4.60034,2470.25,2022-5-10T11:44:27Z
2022-05-10T09:45:49Z,42.805,6.029,13.2998,4.60034,2470.213,2022-5-10T11:47:30Z
2022-05-10T09:48:52Z,42.805,6.029,13.3001,4.60033,2470.227,2022-5-10T11:50:33Z
2022-05-10T09:51:55Z,42.805,6.029,13.3005,4.60033,2470.264,2022-5-10T11:53:36Z
2022-05-10T09:54:59Z,42.805,6.029,13.3002,4.60033,2470.227,2022-5-10T11:56:39Z
2022-05-10T09:58:02Z,42.805,6.029,13.3001,4.60033,2470.227,2022-5-10T11:59:42Z
2022-05-10T10:01:05Z,42.805,6.029,13.3000,4.60033,2470.25,2022-5-10T12:02:45Z
2022-05-10T10:04:08Z,42.805,6.029,13.3001,4.60033,2470.273,2022-5-10T12:05:48Z
2022-05-10T10:07:11Z,42.805,6.029,13.2998,4.60033,2470.25,2022-5-10T12:08:52Z
2022-05-10T10:10:14Z,42.805,6.029,13.3002,4.60033,2470.25,2022-5-10T12:11:55Z
2022-05-10T10:13:17Z,42.805,6.029,13.3001,4.60033,2470.273,2022-5-10T12:14:58Z
2022-05-10T10:16:20Z,42.805,6.029,13.3000,4.60033,2470.273,2022-5-10T12:18:01Z
2022-05-10T10:19:24Z,42.805,6.029,13.3000,4.60033,2470.25,2022-5-10T12:21:04Z
2022-05-10T10:22:27Z,42.805,6.029,13.3000,4.60034,2470.25,2022-5-10T12:24:07Z
2022-05-10T10:25:30Z,42.805,6.029,13.3003,4.60033,2470.273,2022-5-10T12:27:10Z
2022-05-10T10:28:33Z,42.805,6.029,13.3002,4.60034,2470.25,2022-5-10T12:30:13Z
2022-05-10T10:31:36Z,42.805,6.029,13.3005,4.60033,2470.273,2022-5-10T12:33:17Z
2022-05-10T10:34:39Z,42.805,6.029,13.3000,4.60033,2470.273,2022-5-10T12:36:20Z
2022-05-10T10:37:42Z,42.805,6.029,13.3000,4.60034,2470.273,2022-5-10T12:39:23Z
2022-05-10T10:40:45Z,42.805,6.029,13.3000,4.60034,2470.227,2022-5-10T12:42:26Z
2022-05-10T10:43:49Z,42.805,6.029,13.2999,4.60033,2470.273,2022-5-10T12:45:29Z
2022-05-10T10:46:52Z,42.805,6.029,13.3005,4.60033,2470.273,2022-5-10T12:48:32Z
2022-05-10T10:49:55Z,42.805,6.029,13.2999,4.60035,2470.24,2022-5-10T12:51:35Z
2022-05-10T10:52:58Z,42.805,6.029,13.3003,4.60033,2470.273,2022-5-10T12:54:38Z
2022-05-10T10:56:01Z,42.805,6.029,13.2997,4.60033,2470.25,2022-5-10T12:57:42Z
2022-05-10T10:59:04Z,42.805,6.029,13.3002,4.60033,2470.273,2022-5-10T13:00:45Z
2022-05-10T11:02:07Z,42.805,6.029,13.3000,4.60032,2470.264,2022-5-10T13:03:48Z
2022-05-10T11:05:10Z,42.805,6.029,13.2998,4.60033,2470.273,2022-5-10T13:06:51Z
2022-05-10T11:08:14Z,42.805,6.029,13.2998,4.60033,2470.227,2022-5-10T13:09:54Z
2022-05-10T11:11:17Z,42.805,6.029,13.3000,4.60033,2470.227,2022-5-10T13:12:57Z
2022-05-10T11:14:20Z,42.805,6.029,13.3001,4.60033,2470.25,2022-5-10T13:16:00Z
2022-05-10T11:17:23Z,42.805,6.029,13.3001,4.60033,2470.264,2022-5-10T13:19:03Z
2022-05-10T11:20:26Z,42.805,6.029,13.3000,4.60033,2470.264,2022-5-10T13:22:07Z
2022-05-10T11:23:29Z,42.805,6.029,13.2999,4.60033,2470.273,2022-5-10T13:25:10Z
2022-05-10T11:26:32Z,42.805,6.029,13.3002,4.60033,2470.287,2022-5-10T13:28:13Z
2022-05-10T11:29:35Z,42.805,6.029,13.3002,4.60034,2470.273,2022-5-10T13:31:16Z
2022-05-10T11:32:39Z,42.805,6.029,13.3000,4.60033,2470.25,2022-5-10T13:34:19Z
2022-05-10T11:35:42Z,42.805,6.029,13.3002,4.60035,2470.287,2022-5-10T13:37:22Z
2022-05-10T11:38:45Z,42.805,6.029,13.2996,4.60033,2470.287,2022-5-10T13:40:25Z
2022-05-10T11:41:48Z,42.805,6.029,13.3001,4.60033,2470.287,2022-5-10T13:43:28Z
2022-05-10T11:44:51Z,42.805,6.029,13.2998,4.60034,2470.25,2022-5-10T13:46:32Z
2022-05-10T11:47:54Z,42.805,6.029,13.3001,4.60033,2470.264,2022-5-10T13:49:35Z
2022-05-10T11:50:57Z,42.805,6.029,13.3000,4.60033,2470.287,2022-5-10T13:52:38Z
2022-05-10T11:54:00Z,42.805,6.029,13.3000,4.60033,2470.264,2022-5-10T13:55:41Z
2022-05-10T11:57:04Z,42.805,6.029,13.2998,4.60033,2470.287,2022-5-10T13:58:44Z
2022-05-10T12:00:07Z,42.805,6.029,13.3004,4.60033,2470.25,2022-5-10T14:01:47Z
2022-05-10T12:03:10Z,42.805,6.029,13.2999,4.60033,2470.273,2022-5-10T14:04:50Z
2022-05-10T12:06:13Z,42.805,6.029,13.2997,4.60032,2470.264,2022-5-10T14:07:53Z
2022-05-10T12:09:16Z,42.805,6.029,13.2998,4.60033,2470.273,2022-5-10T14:10:57Z
2022-05-10T12:12:19Z,42.805,6.029,13.3000,4.60033,2470.273,2022-5-10T14:14:00Z
2022-05-10T12:15:22Z,42.805,6.029,13.2999,4.60032,2470.25,2022-5-10T14:17:03Z
2022-05-10T12:18:25Z,42.805,6.029,13.2999,4.60033,2470.273,2022-5-10T14:20:06Z
2022-05-10T12:21:29Z,42.805,6.029,13.3000,4.60033,2470.273,2022-5-10T14:23:09Z
2022-05-10T12:24:32Z,42.805,6.029,13.3000,4.60034,2470.297,2022-5-10T14:26:12Z
2022-05-10T12:27:35Z,42.805,6.029,13.3000,4.60033,2470.297,2022-5-10T14:29:15Z
2022-05-10T12:30:38Z,42.805,6.029,13.3001,4.60033,2470.273,2022-5-10T14:32:18Z
2022-05-10T12:33:41Z,42.805,6.029,13.3003,4.60033,2470.273,2022-5-10T14:35:22Z
2022-05-10T12:36:44Z,42.805,6.029,13.3004,4.60033,2470.297,2022-5-10T14:38:25Z
2022-05-10T12:39:47Z,42.805,6.029,13.3001,4.60033,2470.273,2022-5-10T14:41:28Z
2022-05-10T12:42:51Z,42.805,6.029,13.3000,4.60035,2470.297,2022-5-10T14:44:31Z
2022-05-10T12:45:54Z,42.805,6.029,13.3001,4.60033,2470.297,2022-5-10T14:47:34Z
2022-05-10T12:48:57Z,42.805,6.029,13.2999,4.60032,2470.297,2022-5-10T14:50:37Z
2022-05-10T12:52:00Z,42.805,6.029,13.2998,4.60033,2470.273,2022-5-10T14:53:40Z
2022-05-10T12:55:03Z,42.805,6.029,13.2998,4.60033,2470.297,2022-5-10T14:56:43Z
2022-05-10T12:58:06Z,42.805,6.029,13.3000,4.60035,2470.31,2022-5-10T14:59:47Z
2022-05-10T13:01:09Z,42.805,6.029,13.3004,4.60033,2470.273,2022-5-10T15:02:50Z
2022-05-10T13:04:12Z,42.805,6.029,13.3000,4.60033,2470.31,2022-5-10T15:05:53Z
2022-05-10T13:07:16Z,42.805,6.029,13.3000,4.60033,2470.297,2022-5-10T15:08:56Z
2022-05-10T13:10:19Z,42.805,6.029,13.2999,4.60033,2470.297,2022-5-10T15:11:59Z
2022-05-10T13:13:22Z,42.805,6.029,13.2999,4.60032,2470.297,2022-5-10T15:15:02Z
2022-05-10T13:16:25Z,42.805,6.029,13.2998,4.60032,2470.25,2022-5-10T15:18:05Z
2022-05-10T13:19:28Z,42.805,6.029,13.3001,4.60035,2470.273,2022-5-10T15:21:08Z
2022-05-10T13:22:31Z,42.805,6.029,13.2998,4.60032,2470.297,2022-5-10T15:24:12Z
2022-05-10T13:25:34Z,42.805,6.029,13.3000,4.60030,2470.273,2022-5-10T15:27:15Z
2022-05-10T13:28:37Z,42.805,6.029,13.2998,4.60033,2470.273,2022-5-10T15:30:18Z
2022-05-10T13:31:41Z,42.805,6.029,13.3003,4.60032,2470.273,2022-5-10T15:33:21Z
2022-05-10T13:34:44Z,42.805,6.029,13.3000,4.60031,2470.273,2022-5-10T15:36:24Z
2022-05-10T13:37:47Z,42.805,6.029,13.3001,4.60032,2470.283,2022-5-10T15:39:27Z
2022-05-10T13:40:50Z,42.805,6.029,13.2999,4.60033,2470.287,2022-5-10T15:42:30Z
2022-05-10T13:43:53Z,42.805,6.029,13.3001,4.60032,2470.297,2022-5-10T15:45:34Z
2022-05-10T13:46:56Z,42.805,6.029,13.2999,4.60033,2470.287,2022-5-10T15:48:37Z
2022-05-10T13:49:59Z,42.805,6.029,13.3003,4.60033,2470.273,2022-5-10T15:51:40Z
2022-05-10T13:53:02Z,42.805,6.029,13.3000,4.60033,2470.273,2022-5-10T15:54:43Z
2022-05-10T13:56:06Z,42.805,6.029,13.2998,4.60033,2470.227,2022-5-10T15:57:46Z
2022-05-10T13:59:09Z,42.805,6.029,13.2999,4.60033,2470.25,2022-5-10T16:00:49Z
2022-05-10T14:02:12Z,42.805,6.029,13.2999,4.60035,2470.297,2022-5-10T16:03:52Z
2022-05-10T14:05:15Z,42.805,6.029,13.3001,4.60036,2470.25,2022-5-10T16:06:55Z
2022-05-10T14:08:18Z,42.805,6.029,13.2999,4.60033,2470.25,2022-5-10T16:09:59Z
2022-05-10T14:11:21Z,42.805,6.029,13.3000,4.60033,2470.273,2022-5-10T16:13:02Z
2022-05-10T14:14:24Z,42.805,6.029,13.2998,4.60033,2470.273,2022-5-10T16:16:05Z
2022-05-10T14:17:27Z,42.805,6.029,13.3003,4.60033,2470.297,2022-5-10T16:19:08Z
2022-05-10T14:20:31Z,42.805,6.029,13.3001,4.60033,2470.25,2022-5-10T16:22:11Z
2022-05-10T14:23:34Z,42.805,6.029,13.2996,4.60033,2470.273,2022-5-10T16:25:14Z
2022-05-10T14:26:37Z,42.805,6.029,13.2996,4.60033,2470.287,2022-5-10T16:28:17Z
2022-05-10T14:29:40Z,42.805,6.029,13.3005,4.60034,2470.297,2022-5-10T16:31:20Z
2022-05-10T14:32:43Z,42.805,6.029,13.3003,4.60033,2470.334,2022-5-10T16:34:24Z
2022-05-10T14:35:46Z,42.805,6.029,13.3003,4.60033,2470.287,2022-5-10T16:37:27Z
2022-05-10T14:38:49Z,42.805,6.029,13.2997,4.60034,2470.25,2022-5-10T16:40:30Z
2022-05-10T14:41:52Z,42.805,6.029,13.3001,4.60034,2470.334,2022-5-10T16:43:33Z
2022-05-10T14:44:56Z,42.805,6.029,13.3000,4.60033,2470.343,2022-5-10T16:46:36Z
2022-05-10T14:47:59Z,42.805,6.029,13.2998,4.60033,2470.273,2022-5-10T16:49:39Z
2022-05-10T14:51:02Z,42.805,6.029,13.3003,4.60034,2470.334,2022-5-10T16:52:42Z
2022-05-10T14:54:05Z,42.805,6.029,13.2999,4.60034,2470.273,2022-5-10T16:55:45Z
2022-05-10T14:57:08Z,42.805,6.029,13.2997,4.60033,2470.297,2022-5-10T16:58:49Z
2022-05-10T15:00:11Z,42.805,6.029,13.2998,4.60033,2470.334,2022-5-10T17:01:52Z
2022-05-10T15:03:14Z,42.805,6.029,13.2999,4.60033,2470.273,2022-5-10T17:04:55Z
2022-05-10T15:06:17Z,42.805,6.029,13.3003,4.60033,2470.31,2022-5-10T17:07:58Z
2022-05-10T15:09:21Z,42.805,6.029,13.2996,4.60034,2470.31,2022-5-10T17:11:01Z
2022-05-10T15:12:24Z,42.805,6.029,13.2996,4.60033,2470.297,2022-5-10T17:14:04Z
2022-05-10T15:15:27Z,42.805,6.029,13.3000,4.60033,2470.273,2022-5-10T17:17:07Z